Find Starlink 6089

NORAD ID: 56096 Int'l Des: 2023-046 Owner: SPXS Country: US Constellation: starlink operational
LEOCIRCULAR

Current View

Loading 3D Globe...

About Starlink 6089

Starlink 6089 (NORAD 56096) is a starlink constellation satellite (v1.5) launched Mar 29, 2023 by SPXS of US. It operates in LEO, CIRCULAR orbit with a mass of 305.00 kg.

About Starlink 6089

Description loading...

Upcoming Passes

Passes for default location (London). Set your location on the main map for personalized predictions.

Altitude History

Loading altitude history...

Two-Line Element Set

1 56096U 23046D 26168.14603220 .00000278 00000-0 19667-4 0 9992
2 56096 43.0092 319.7563 0002912 282.3875 77.6651 15.27578699177241
Epoch: Jun 17, 2026 • Age: 21 hours

Current Status

Altitude 485.5 km
Velocity 7.63 km/s
Sub-Earth Point 30.34°N, 177.29°W
Launch Date Mar 29, 2023
Age 3.2 years
Type internet

Technical Details

Classification Payload
Mass 305.00 kg
Dry Mass 290.00 kg
Total Mass 305.00 kg
Length 0.20 m
Diameter 2.80 m
Span 9.00 m
Shape Box + pan
Manufacturer SPXS
Bus Type Starlink
Phase Status In Orbit
Owner/State SPXS/US

Most Searched